Time,TemperatureF,DewpointF,PressureIn,WindDirection,WindDirectionDegrees,WindSpeedMPH,WindSpeedGustMPH,Humidity,HourlyPrecipIn,Conditions,Clouds,dailyrainin,SoftwareType,DateUTC
2013-01-29 00:11:00,38.5,37.7,30.17,North,0,0.0,-999.0,97,-99.99,,,0.00,Acu-Link.com,2013-01-29 05:11:00,
2013-01-29 00:27:00,37.8,37.0,30.17,NNW,337,0.0,-999.0,97,-99.99,,,0.00,Acu-Link.com,2013-01-29 05:27:00,
2013-01-29 00:42:00,37.4,36.6,30.18,SW,225,0.0,-999.0,97,-99.99,,,0.00,Acu-Link.com,2013-01-29 05:42:00,
2013-01-29 00:57:00,37.0,36.2,30.17,WSW,247,0.0,-999.0,97,-99.99,,,0.00,Acu-Link.com,2013-01-29 05:57:00,
2013-01-29 01:12:00,36.9,36.1,30.17,SSW,202,0.0,-999.0,97,-99.99,,,0.00,Acu-Link.com,2013-01-29 06:12:00,
2013-01-29 01:28:00,36.5,35.7,30.17,West,270,0.0,-999.0,97,-99.99,,,0.00,Acu-Link.com,2013-01-29 06:28:00,
2013-01-29 01:43:00,36.0,35.2,30.16,South,180,0.0,-999.0,97,-99.99,,,0.00,Acu-Link.com,2013-01-29 06:43:00,
2013-01-29 01:58:00,35.8,35.0,30.16,NE,45,0.0,-999.0,97,-99.99,,,0.00,Acu-Link.com,2013-01-29 06:58:00,
2013-01-29 02:14:00,35.6,34.8,30.16,ESE,112,0.0,-999.0,97,-99.99,,,0.00,Acu-Link.com,2013-01-29 07:14:00,
2013-01-29 02:29:00,35.2,34.4,30.16,West,270,0.0,-999.0,97,-99.99,,,0.00,Acu-Link.com,2013-01-29 07:29:00,
2013-01-29 02:44:00,35.2,34.4,30.16,West,270,0.0,-999.0,97,-99.99,,,0.00,Acu-Link.com,2013-01-29 07:44:00,
2013-01-29 02:59:00,35.1,34.3,30.15,West,270,0.0,-999.0,97,-99.99,,,0.00,Acu-Link.com,2013-01-29 07:59:00,
2013-01-29 03:14:00,35.1,34.6,30.14,SSE,157,0.0,-999.0,98,-99.99,,,0.00,Acu-Link.com,2013-01-29 08:14:00,
2013-01-29 03:29:00,35.1,34.6,30.15,West,270,0.0,-999.0,98,-99.99,,,0.00,Acu-Link.com,2013-01-29 08:29:00,
2013-01-29 03:45:00,35.1,34.6,30.15,NE,45,0.0,-999.0,98,-99.99,,,0.00,Acu-Link.com,2013-01-29 08:45:00,
2013-01-29 04:00:00,35.6,35.1,30.15,South,180,0.0,-999.0,98,-99.99,,,0.00,Acu-Link.com,2013-01-29 09:00:00,
2013-01-29 04:16:00,35.6,35.1,30.15,South,180,0.0,-999.0,98,-99.99,,,0.00,Acu-Link.com,2013-01-29 09:16:00,
2013-01-29 04:31:00,36.9,36.4,30.15,ESE,112,0.0,-999.0,98,-99.99,,,0.00,Acu-Link.com,2013-01-29 09:31:00,
2013-01-29 04:46:00,38.1,37.6,30.14,West,270,0.0,-999.0,98,-99.99,,,0.00,Acu-Link.com,2013-01-29 09:46:00,
2013-01-29 05:01:00,39.0,38.5,30.14,SSE,157,0.0,-999.0,98,-99.99,,,0.00,Acu-Link.com,2013-01-29 10:01:00,
2013-01-29 05:16:00,39.7,39.2,30.13,SSE,157,0.0,-999.0,98,-99.99,,,0.00,Acu-Link.com,2013-01-29 10:16:00,
2013-01-29 05:31:00,40.3,39.8,30.13,SSE,157,0.0,-999.0,98,-99.99,,,0.00,Acu-Link.com,2013-01-29 10:31:00,
2013-01-29 05:47:00,40.6,40.1,30.13,SSE,157,0.0,-999.0,98,-99.99,,,0.00,Acu-Link.com,2013-01-29 10:47:00,
2013-01-29 06:02:00,40.6,40.1,30.12,West,270,0.0,-999.0,98,-99.99,,,0.00,Acu-Link.com,2013-01-29 11:02:00,
2013-01-29 06:17:00,40.5,40.0,30.12,NE,45,0.0,-999.0,98,-99.99,,,0.00,Acu-Link.com,2013-01-29 11:17:00,
2013-01-29 06:32:00,40.3,39.8,30.12,ESE,112,0.0,-999.0,98,-99.99,,,0.00,Acu-Link.com,2013-01-29 11:32:00,
2013-01-29 06:48:00,40.3,39.8,30.13,South,180,0.0,-999.0,98,-99.99,,,0.00,Acu-Link.com,2013-01-29 11:48:00,
2013-01-29 07:03:00,40.8,40.3,30.12,NE,45,0.0,-999.0,98,-99.99,,,0.00,Acu-Link.com,2013-01-29 12:03:00,
2013-01-29 07:18:00,41.4,40.9,30.12,SE,135,0.0,-999.0,98,-99.99,,,0.00,Acu-Link.com,2013-01-29 12:18:00,
2013-01-29 07:34:00,41.4,40.9,30.13,NW,315,0.0,-999.0,98,-99.99,,,0.00,Acu-Link.com,2013-01-29 12:34:00,
2013-01-29 07:49:00,41.2,40.7,30.12,NNW,337,0.0,-999.0,98,-99.99,,,0.00,Acu-Link.com,2013-01-29 12:49:00,
2013-01-29 08:04:00,41.4,40.9,30.13,West,270,0.0,-999.0,98,-99.99,,,0.00,Acu-Link.com,2013-01-29 13:04:00,
2013-01-29 08:19:00,42.3,41.8,30.12,ESE,112,0.0,-999.0,98,-99.99,,,0.00,Acu-Link.com,2013-01-29 13:19:00,
2013-01-29 08:34:00,43.5,43.0,30.12,NE,45,0.0,-999.0,98,-99.99,,,0.00,Acu-Link.com,2013-01-29 13:34:00,
2013-01-29 08:49:00,44.8,44.3,30.11,SE,135,0.0,-999.0,98,-99.99,,,0.00,Acu-Link.com,2013-01-29 13:49:00,
2013-01-29 09:05:00,48.0,47.5,30.12,SE,135,0.0,-999.0,98,-99.99,,,0.00,Acu-Link.com,2013-01-29 14:05:00,
2013-01-29 09:20:00,52.7,51.9,30.12,South,180,0.0,-999.0,97,-99.99,,,0.00,Acu-Link.com,2013-01-29 14:20:00,
2013-01-29 09:35:00,54.7,54.1,30.12,SW,225,0.0,-999.0,98,-99.99,,,0.00,Acu-Link.com,2013-01-29 14:35:00,
2013-01-29 09:50:00,55.6,54.2,30.12,West,270,0.0,-999.0,95,-99.99,,,0.00,Acu-Link.com,2013-01-29 14:50:00,
2013-01-29 10:05:00,57.0,54.7,30.12,West,270,0.0,-999.0,92,-99.99,,,0.00,Acu-Link.com,2013-01-29 15:05:00,
2013-01-29 10:20:00,57.7,54.8,30.13,SW,225,0.0,-999.0,90,-99.99,,,0.00,Acu-Link.com,2013-01-29 15:20:00,
2013-01-29 10:35:00,58.8,55.9,30.12,SE,135,0.0,-999.0,90,-99.99,,,0.00,Acu-Link.com,2013-01-29 15:35:00,
2013-01-29 10:50:00,60.1,56.8,30.13,SSW,202,0.0,-999.0,89,-99.99,,,0.00,Acu-Link.com,2013-01-29 15:50:00,
2013-01-29 11:05:00,61.2,57.6,30.12,SW,225,0.0,-999.0,88,-99.99,,,0.00,Acu-Link.com,2013-01-29 16:05:00,
2013-01-29 11:21:00,61.3,58.0,30.12,ESE,112,0.0,-999.0,89,-99.99,,,0.00,Acu-Link.com,2013-01-29 16:21:00,
2013-01-29 11:36:00,61.7,58.1,30.11,ESE,112,1.7,-999.0,88,-99.99,,,0.00,Acu-Link.com,2013-01-29 16:36:00,
2013-01-29 11:51:00,63.5,59.6,30.10,South,180,0.0,-999.0,87,-99.99,,,0.00,Acu-Link.com,2013-01-29 16:51:00,
2013-01-29 12:06:00,64.0,59.4,30.09,West,270,0.0,-999.0,85,-99.99,,,0.00,Acu-Link.com,2013-01-29 17:06:00,
2013-01-29 12:21:00,66.0,60.3,30.08,WSW,247,0.0,-999.0,82,-99.99,,,0.00,Acu-Link.com,2013-01-29 17:21:00,
2013-01-29 12:36:00,64.9,59.6,30.07,West,270,1.1,-999.0,83,-99.99,,,0.00,Acu-Link.com,2013-01-29 17:36:00,
2013-01-29 12:51:00,65.1,59.8,30.06,SE,135,1.1,-999.0,83,-99.99,,,0.00,Acu-Link.com,2013-01-29 17:51:00,
2013-01-29 13:06:00,66.7,60.7,30.06,SSW,202,1.7,-999.0,81,-99.99,,,0.00,Acu-Link.com,2013-01-29 18:06:00,
2013-01-29 13:21:00,67.8,61.0,30.05,West,270,3.2,-999.0,79,-99.99,,,0.00,Acu-Link.com,2013-01-29 18:21:00,
2013-01-29 13:36:00,68.2,61.1,30.04,ESE,112,3.2,-999.0,78,-99.99,,,0.00,Acu-Link.com,2013-01-29 18:36:00,
2013-01-29 13:52:00,69.1,61.2,30.04,South,180,2.7,-999.0,76,-99.99,,,0.00,Acu-Link.com,2013-01-29 18:52:00,
2013-01-29 14:07:00,68.2,61.1,30.03,WNW,292,2.2,-999.0,78,-99.99,,,0.00,Acu-Link.com,2013-01-29 19:07:00,
2013-01-29 14:22:00,68.0,61.2,30.03,West,270,0.0,-999.0,79,-99.99,,,0.00,Acu-Link.com,2013-01-29 19:22:00,
2013-01-29 14:37:00,66.4,60.4,30.02,ESE,112,0.0,-999.0,81,-99.99,,,0.00,Acu-Link.com,2013-01-29 19:37:00,
2013-01-29 14:52:00,67.8,61.4,30.01,SW,225,1.7,-999.0,80,-99.99,,,0.00,Acu-Link.com,2013-01-29 19:52:00,
2013-01-29 15:07:00,68.7,61.9,30.01,ESE,112,1.1,-999.0,79,-99.99,,,0.00,Acu-Link.com,2013-01-29 20:07:00,
2013-01-29 15:22:00,68.2,61.4,30.01,SSW,202,0.0,-999.0,79,-99.99,,,0.00,Acu-Link.com,2013-01-29 20:22:00,
2013-01-29 15:37:00,68.2,61.4,30.00,ESE,112,0.0,-999.0,79,-99.99,,,0.00,Acu-Link.com,2013-01-29 20:37:00,
2013-01-29 15:52:00,68.5,61.7,30.00,West,270,0.0,-999.0,79,-99.99,,,0.00,Acu-Link.com,2013-01-29 20:52:00,
2013-01-29 16:08:00,69.1,61.9,29.99,WNW,292,0.0,-999.0,78,-99.99,,,0.00,Acu-Link.com,2013-01-29 21:08:00,
2013-01-29 16:23:00,69.4,61.5,29.99,North,0,2.7,-999.0,76,-99.99,,,0.00,Acu-Link.com,2013-01-29 21:23:00,
2013-01-29 16:38:00,68.2,60.3,29.99,NNW,337,1.7,-999.0,76,-99.99,,,0.00,Acu-Link.com,2013-01-29 21:38:00,
2013-01-29 16:53:00,67.6,60.5,29.98,West,270,0.0,-999.0,78,-99.99,,,0.00,Acu-Link.com,2013-01-29 21:53:00,
2013-01-29 17:08:00,66.9,60.2,29.98,NW,315,0.0,-999.0,79,-99.99,,,0.00,Acu-Link.com,2013-01-29 22:08:00,
2013-01-29 17:23:00,66.2,59.8,29.98,WSW,247,0.0,-999.0,80,-99.99,,,0.00,Acu-Link.com,2013-01-29 22:23:00,
2013-01-29 17:38:00,65.7,60.0,29.97,SW,225,0.0,-999.0,82,-99.99,,,0.00,Acu-Link.com,2013-01-29 22:38:00,
2013-01-29 17:53:00,64.4,59.1,29.97,ESE,112,0.0,-999.0,83,-99.99,,,0.00,Acu-Link.com,2013-01-29 22:53:00,
2013-01-29 18:08:00,63.5,59.2,29.97,NE,45,0.0,-999.0,86,-99.99,,,0.00,Acu-Link.com,2013-01-29 23:08:00,
2013-01-29 18:24:00,62.6,58.7,29.97,NE,45,0.0,-999.0,87,-99.99,,,0.00,Acu-Link.com,2013-01-29 23:24:00,
2013-01-29 18:39:00,62.1,58.8,29.97,ENE,67,0.0,-999.0,89,-99.99,,,0.00,Acu-Link.com,2013-01-29 23:39:00,
2013-01-29 18:54:00,61.7,58.7,29.97,West,270,0.0,-999.0,90,-99.99,,,0.00,Acu-Link.com,2013-01-29 23:54:00,
2013-01-29 19:09:00,60.8,58.2,29.96,ENE,67,0.0,-999.0,91,-99.99,,,0.00,Acu-Link.com,2013-01-30 00:09:00,
2013-01-29 19:24:00,60.4,58.4,29.96,West,270,0.0,-999.0,93,-99.99,,,0.00,Acu-Link.com,2013-01-30 00:24:00,
2013-01-29 19:39:00,60.1,58.1,29.96,SSW,202,0.0,-999.0,93,-99.99,,,0.00,Acu-Link.com,2013-01-30 00:39:00,
2013-01-29 19:54:00,59.4,57.7,29.95,West,270,0.0,-999.0,94,-99.99,,,0.00,Acu-Link.com,2013-01-30 00:54:00,
2013-01-29 20:09:00,58.8,57.4,29.95,WNW,292,0.0,-999.0,95,-99.99,,,0.00,Acu-Link.com,2013-01-30 01:09:00,
2013-01-29 20:24:00,58.8,57.7,29.96,West,270,0.0,-999.0,96,-99.99,,,0.00,Acu-Link.com,2013-01-30 01:24:00,
2013-01-29 20:40:00,58.5,57.4,29.96,West,270,0.0,-999.0,96,-99.99,,,0.00,Acu-Link.com,2013-01-30 01:40:00,
2013-01-29 20:55:00,58.1,57.5,29.96,WNW,292,0.0,-999.0,98,-99.99,,,0.00,Acu-Link.com,2013-01-30 01:55:00,
2013-01-29 21:10:00,57.9,57.3,29.95,ESE,112,0.0,-999.0,98,-99.99,,,0.01,Acu-Link.com,2013-01-30 02:10:00,
2013-01-29 21:25:00,57.7,57.1,29.94,West,270,0.0,-999.0,98,-99.99,,,0.01,Acu-Link.com,2013-01-30 02:25:00,
2013-01-29 21:40:00,57.7,57.1,29.93,North,0,0.0,-999.0,98,-99.99,,,0.01,Acu-Link.com,2013-01-30 02:40:00,
2013-01-29 21:55:00,57.7,57.1,29.92,West,270,0.0,-999.0,98,-99.99,,,0.01,Acu-Link.com,2013-01-30 02:55:00,
2013-01-29 22:10:00,57.9,57.3,29.92,SE,135,0.0,-999.0,98,-99.99,,,0.01,Acu-Link.com,2013-01-30 03:10:00,
2013-01-29 22:25:00,57.7,57.1,29.91,SSW,202,0.0,-999.0,98,-99.99,,,0.01,Acu-Link.com,2013-01-30 03:25:00,
2013-01-29 22:40:00,57.9,57.3,29.91,ENE,67,0.0,-999.0,98,-99.99,,,0.01,Acu-Link.com,2013-01-30 03:40:00,
2013-01-29 22:56:00,58.5,57.9,29.91,SSE,157,0.0,-999.0,98,-99.99,,,0.01,Acu-Link.com,2013-01-30 03:56:00,
2013-01-29 23:11:00,59.4,58.8,29.91,WSW,247,1.1,-999.0,98,-99.99,,,0.01,Acu-Link.com,2013-01-30 04:11:00,
2013-01-29 23:26:00,60.4,59.8,29.91,SE,135,5.3,-999.0,98,-99.99,,,0.01,Acu-Link.com,2013-01-30 04:26:00,
2013-01-29 23:41:00,60.6,60.0,29.91,ENE,67,1.7,-999.0,98,-99.99,,,0.01,Acu-Link.com,2013-01-30 04:41:00,
2013-01-29 23:56:00,60.4,59.8,29.91,NE,45,0.0,-999.0,98,-99.99,,,0.01,Acu-Link.com,2013-01-30 04:56:00,